+ View the NASA Portal
+ Center for Near-Earth Object Studies
IMPORTANT:
The SSD Announcement email list is now available. Major changes are coming in the near future, including possible hostname and/or URL changes. To be notified of such changes, subscribe to this email list.
Please visit
this page
for more details.
Don't show this message again
JPL Small-Body Database Browser
Search:
[
help
]
277903 (2006 KT62)
Classification:
Main-belt Asteroid
SPK-ID:
2277903
[
Ephemeris
|
Orbit Diagram
|
Orbital Elements
|
Mission Design
|
Physical Parameters
|
Discovery Circumstances
|
Close-Approach Data
]
[ show orbit diagram ]
Orbital Elements at Epoch 2458600.5 (2019-Apr-27.0) TDB
Reference:
JPL 10
(heliocentric ecliptic J2000)
Element
Value
Uncertainty (1-sigma)
Units
e
.06291572795328032
6.3211e-08
a
3.047343551391495
5.1571e-08
au
q
2.855617713531964
1.9372e-07
au
i
9.049695079510981
1.707e-05
deg
node
196.6445202693549
3.9613e-05
deg
peri
271.7956587216273
0.0001482
deg
M
283.9461020293577
0.00014445
deg
t
p
2459010.987117062897
(2020-Jun-10.48711706)
0.00078077
TDB
period
1943.034690998822
5.32
4.9324e-05
1.35e-07
d
yr
n
.1852771860778981
4.7032e-09
deg/d
Q
3.239069389251025
5.4816e-08
au
Orbit Determination Parameters
# obs. used (total)
119
data-arc span
5419 days (14.84 yr)
first obs. used
2003-11-29
last obs. used
2018-09-30
planetary ephem.
DE431
SB-pert. ephem.
SB431-N16
condition code
0
norm. resid. RMS
.58004
source
ORB
producer
Otto Matic
solution date
2019-Jul-14 07:20:29
Additional Information
Earth MOID
= 1.8911 au
Jupiter MOID
= 1.87947 au
T_jup
= 3.216
[ show covariance matrix ]
[
Ephemeris
|
Orbit Diagram
|
Orbital Elements
|
Mission Design
|
Physical Parameters
|
Discovery Circumstances
|
Close-Approach Data
]
Physical Parameter Table
Parameter
Symbol
Value
Units
Sigma
Reference
Notes
absolute magnitude
H
16.3
n/a
MPO455062
277903 (2006 KT62)
Discovered 2006-May-22 by Spacewatch at Kitt Peak
Reference:
20110517/Numbers.arc
Last Updated:
2011-05-20
[ show close-approach data ]
Alternate Designations
2006 KT62
= 2008 UN183
[
Ephemeris
|
Orbit Diagram
|
Orbital Elements
|
Mission Design
|
Physical Parameters
|
Discovery Circumstances
|
Close-Approach Data
]
2019-Dec-06 03:35 UT
(server date/time)
Site Manager:
Ryan S. Park
Webmaster
:
Alan B. Chamberlin